• In Czech Republic
  • List of Countries
  • For 7 days
  • Water Temperature
  • Satellite Maps
  • Weather Map
  • Weather Widgets
  • user-avatar
    Login

    Hourly Weather York

    Today, 24 October, Tuesday

    Time Temperature Precipitation Wind Pressure Humidity
    00:00 +13°C° 0 mm 4 mps 758 mmHg 94%
    01:00 +12°C° 0 mm 3 mps 758 mmHg 94%
    02:00 +12°C° 0 mm 3 mps 758 mmHg 94%
    03:00 +12°C° 0 mm 3 mps 758 mmHg 94%
    04:00 +12°C° 0 mm 3 mps 758 mmHg 94%
    05:00 +12°C° 0 mm 4 mps 758 mmHg 94%
    06:00 +12°C° 0 mm 4 mps 758 mmHg 93%
    07:00 +13°C° 0.6 mm 4 mps 757 mmHg 93%
    08:00 +13°C° 0.6 mm 5 mps 757 mmHg 93%
    09:00 +14°C° 0.6 mm 5 mps 757 mmHg 92%
    10:00 +15°C° 0.1 mm 6 mps 757 mmHg 91%
    11:00 +16°C° 0.1 mm 6 mps 757 mmHg 89%
    12:00 +17°C° 0.1 mm 6 mps 757 mmHg 87%
    13:00 +16°C° 0.1 mm 6 mps 756 mmHg 87%
    14:00 +16°C° 0.1 mm 6 mps 756 mmHg 87%
    15:00 +16°C° 0.1 mm 5 mps 756 mmHg 87%
    16:00 +16°C° 1.1 mm 5 mps 757 mmHg 88%
    17:00 +16°C° 1.1 mm 5 mps 757 mmHg 89%
    18:00 +15°C° 1.1 mm 4 mps 757 mmHg 91%
    19:00 +15°C° 0.5 mm 4 mps 757 mmHg 90%
    20:00 +15°C° 0.5 mm 4 mps 757 mmHg 90%
    21:00 +15°C° 0.5 mm 4 mps 756 mmHg 90%
    22:00 +15°C° 0.6 mm 4 mps 756 mmHg 90%
    23:00 +15°C° 0.6 mm 4 mps 756 mmHg 90%

    Tomorrow, 25 October, Wednesday

    Time Temperature Precipitation Wind Pressure Humidity
    00:00 +14°C° 0.6 mm 4 mps 756 mmHg 90%
    01:00 +14°C° 0.3 mm 5 mps 757 mmHg 88%
    02:00 +13°C° 0.3 mm 5 mps 757 mmHg 87%
    03:00 +12°C° 0.3 mm 5 mps 758 mmHg 85%
    04:00 +12°C° 0 mm 5 mps 758 mmHg 86%
    05:00 +10°C° 0 mm 5 mps 759 mmHg 86%
    06:00 +11°C° 0 mm 4 mps 760 mmHg 87%
    07:00 +11°C° 0 mm 4 mps 760 mmHg 85%
    08:00 +12°C° 0 mm 5 mps 761 mmHg 83%
    09:00 +12°C° 0 mm 5 mps 761 mmHg 82%
    10:00 +13°C° 0 mm 5 mps 762 mmHg 79%
    11:00 +13°C° 0 mm 5 mps 762 mmHg 76%
    12:00 +14°C° 0 mm 6 mps 762 mmHg 74%
    13:00 +14°C° 0 mm 5 mps 762 mmHg 74%
    14:00 +14°C° 0 mm 5 mps 763 mmHg 74%
    15:00 +14°C° 0 mm 5 mps 763 mmHg 74%
    16:00 +13°C° 0 mm 4 mps 763 mmHg 78%
    17:00 +12°C° 0 mm 4 mps 763 mmHg 81%
    18:00 +11°C° 0 mm 3 mps 763 mmHg 85%
    19:00 +11°C° 0 mm 3 mps 764 mmHg 85%
    20:00 +11°C° 0 mm 3 mps 764 mmHg 86%
    21:00 +11°C° 0 mm 3 mps 764 mmHg 86%
    22:00 +11°C° 0 mm 3 mps 764 mmHg 87%
    23:00 +11°C° 0 mm 3 mps 764 mmHg 87%

    Day after tomorrow, 26 October, Thursday

    Time Temperature Precipitation Wind Pressure Humidity
    00:00 +11°C° 0 mm 3 mps 764 mmHg 88%
    01:00 +11°C° 0 mm 3 mps 764 mmHg 89%
    02:00 +11°C° 0 mm 3 mps 764 mmHg 89%
    03:00 +11°C° 0 mm 3 mps 764 mmHg 90%
    04:00 +10°C° 0 mm 3 mps 764 mmHg 91%
    05:00 +10°C° 0 mm 3 mps 764 mmHg 91%
    06:00 +10°C° 0 mm 3 mps 764 mmHg 92%
    07:00 +11°C° 0 mm 3 mps 764 mmHg 90%
    08:00 +11°C° 0 mm 3 mps 765 mmHg 88%
    09:00 +12°C° 0 mm 3 mps 765 mmHg 85%
    10:00 +13°C° 0 mm 3 mps 765 mmHg 82%
    11:00 +13°C° 0 mm 4 mps 765 mmHg 78%
    12:00 +14°C° 0 mm 4 mps 765 mmHg 74%
    13:00 +14°C° 0 mm 3 mps 765 mmHg 75%
    14:00 +14°C° 0 mm 3 mps 765 mmHg 75%
    15:00 +14°C° 0 mm 3 mps 765 mmHg 76%
    16:00 +13°C° 0 mm 3 mps 765 mmHg 79%
    17:00 +12°C° 0 mm 3 mps 765 mmHg 81%
    18:00 +11°C° 0 mm 3 mps 765 mmHg 84%
    19:00 +11°C° 0.1 mm 3 mps 765 mmHg 85%
    20:00 +11°C° 0.1 mm 3 mps 765 mmHg 86%
    21:00 +10°C° 0.1 mm 3 mps 765 mmHg 86%
    22:00 +10°C° 0.1 mm 3 mps 765 mmHg 86%
    23:00 +10°C° 0.1 mm 3 mps 766 mmHg 85%

    27 October, Friday

    Time Temperature Precipitation Wind Pressure Humidity
    00:00 +10°C° 0.1 mm 3 mps 766 mmHg 85%
    01:00 +9°C° 0 mm 3 mps 766 mmHg 85%
    02:00 +8°C° 0 mm 4 mps 766 mmHg 86%
    03:00 +8°C° 0 mm 4 mps 765 mmHg 87%
    04:00 +7°C° 0 mm 4 mps 766 mmHg 87%
    05:00 +7°C° 0 mm 4 mps 766 mmHg 87%
    06:00 +7°C° 0 mm 4 mps 766 mmHg 88%
    07:00 +7°C° 0 mm 4 mps 767 mmHg 85%
    08:00 +8°C° 0 mm 4 mps 767 mmHg 83%
    09:00 +8°C° 0 mm 4 mps 768 mmHg 80%
    10:00 +10°C° 0 mm 4 mps 768 mmHg 75%
    11:00 +11°C° 0 mm 4 mps 768 mmHg 69%
    12:00 +12°C° 0 mm 4 mps 768 mmHg 63%
    13:00 +12°C° 0 mm 4 mps 768 mmHg 64%
    14:00 +12°C° 0 mm 4 mps 767 mmHg 64%
    15:00 +12°C° 0 mm 4 mps 767 mmHg 65%
    16:00 +11°C° 0 mm 4 mps 767 mmHg 71%
    17:00 +10°C° 0 mm 4 mps 767 mmHg 76%
    18:00 +8°C° 0 mm 5 mps 767 mmHg 81%
    19:00 +8°C° 0 mm 5 mps 766 mmHg 82%
    20:00 +8°C° 0 mm 5 mps 766 mmHg 83%
    21:00 +8°C° 0 mm 5 mps 765 mmHg 83%
    22:00 +8°C° 0 mm 6 mps 765 mmHg 82%
    23:00 +9°C° 0 mm 6 mps 764 mmHg 81%

    28 October, Saturday

    Time Temperature Precipitation Wind Pressure Humidity
    00:00 +9°C° 0 mm 6 mps 763 mmHg 80%
    01:00 +9°C° 0 mm 6 mps 762 mmHg 78%
    02:00 +9°C° 0 mm 7 mps 761 mmHg 75%
    03:00 +9°C° 0 mm 7 mps 761 mmHg 73%
    04:00 +9°C° 0.1 mm 7 mps 760 mmHg 73%
    05:00 +9°C° 0.1 mm 7 mps 759 mmHg 74%
    06:00 +9°C° 0.1 mm 7 mps 759 mmHg 74%
    07:00 +10°C° 0 mm 8 mps 758 mmHg 75%
    08:00 +10°C° 0 mm 8 mps 758 mmHg 76%
    09:00 +11°C° 0 mm 8 mps 758 mmHg 77%
    10:00 +11°C° 0 mm 8 mps 758 mmHg 73%
    11:00 +11°C° 0 mm 9 mps 758 mmHg 69%
    12:00 +12°C° 0 mm 9 mps 758 mmHg 64%
    13:00 +11°C° 0 mm 9 mps 758 mmHg 62%
    14:00 +11°C° 0 mm 9 mps 758 mmHg 60%
    15:00 +10°C° 0 mm 8 mps 758 mmHg 58%
    16:00 +9°C° 0 mm 8 mps 758 mmHg 59%
    17:00 +8°C° 0 mm 7 mps 759 mmHg 61%
    18:00 +6°C° 0 mm 7 mps 760 mmHg 62%
    19:00 +5°C° 0 mm 7 mps 760 mmHg 62%
    20:00 +5°C° 0 mm 8 mps 761 mmHg 63%
    21:00 +4°C° 0 mm 8 mps 761 mmHg 63%
    22:00 +4°C° 0 mm 8 mps 761 mmHg 64%
    23:00 +4°C° 0 mm 8 mps 762 mmHg 65%

    29 October, Sunday

    Time Temperature Precipitation Wind Pressure Humidity
    00:00 +4°C° 0 mm 8 mps 762 mmHg 66%
    01:00 +4°C° 0 mm 7 mps 762 mmHg 66%
    02:00 +4°C° 0 mm 7 mps 763 mmHg 67%
    03:00 +4°C° 0 mm 7 mps 763 mmHg 68%
    04:00 +4°C° 0 mm 7 mps 763 mmHg 69%
    05:00 +3°C° 0 mm 7 mps 764 mmHg 70%
    06:00 +3°C° 0 mm 7 mps 764 mmHg 71%
    07:00 +3°C° 0 mm 7 mps 765 mmHg 70%
    08:00 +4°C° 0 mm 6 mps 765 mmHg 70%
    09:00 +4°C° 0 mm 6 mps 766 mmHg 70%
    10:00 +5°C° 0 mm 6 mps 766 mmHg 66%
    11:00 +7°C° 0 mm 5 mps 766 mmHg 63%
    12:00 +8°C° 0 mm 4 mps 766 mmHg 59%
    13:00 +8°C° 0 mm 4 mps 766 mmHg 60%
    14:00 +10°C° 0 mm 4 mps 766 mmHg 60%
    15:00 +10°C° 0 mm 4 mps 765 mmHg 60%
    16:00 +8°C° 0 mm 4 mps 765 mmHg 65%
    17:00 +7°C° 0 mm 4 mps 765 mmHg 69%
    18:00 +7°C° 0 mm 4 mps 765 mmHg 74%
    19:00 +7°C° 0 mm 5 mps 765 mmHg 76%
    20:00 +7°C° 0 mm 5 mps 764 mmHg 78%
    21:00 +7°C° 0 mm 5 mps 764 mmHg 81%
    22:00 +8°C° 0 mm 5 mps 764 mmHg 83%
    23:00 +9°C° 0 mm 6 mps 763 mmHg 85%

    30 October, Monday

    Time Temperature Precipitation Wind Pressure Humidity
    00:00 +9°C° 0 mm 6 mps 763 mmHg 88%
    01:00 +9°C° 0 mm 6 mps 763 mmHg 88%
    02:00 +9°C° 0 mm 6 mps 762 mmHg 88%
    03:00 +9°C° 0 mm 6 mps 762 mmHg 87%
    04:00 +9°C° 0 mm 6 mps 762 mmHg 87%
    05:00 +9°C° 0 mm 6 mps 762 mmHg 86%
    06:00 +9°C° 0 mm 5 mps 762 mmHg 85%
    07:00 +9°C° 0 mm 5 mps 762 mmHg 84%
    08:00 +10°C° 0 mm 6 mps 762 mmHg 83%
    09:00 +10°C° 0 mm 6 mps 762 mmHg 82%
    10:00 +11°C° 0 mm 6 mps 762 mmHg 80%
    11:00 +11°C° 0 mm 6 mps 762 mmHg 78%
    12:00 +13°C° 0 mm 6 mps 762 mmHg 75%
    13:00 +13°C° 0 mm 6 mps 762 mmHg 75%
    14:00 +13°C° 0 mm 6 mps 762 mmHg 75%
    15:00 +13°C° 0 mm 6 mps 762 mmHg 75%
    16:00 +12°C° 0 mm 5 mps 762 mmHg 79%
    17:00 +11°C° 0 mm 4 mps 762 mmHg 82%
    18:00 +10°C° 0 mm 4 mps 763 mmHg 86%
    19:00 +9°C° 0 mm 3 mps 763 mmHg 88%
    20:00 +9°C° 0 mm 3 mps 763 mmHg 89%
    21:00 +8°C° 0 mm 3 mps 764 mmHg 90%
    22:00 +8°C° 0 mm 3 mps 764 mmHg 91%
    23:00 +8°C° 0 mm 3 mps 764 mmHg 91%
    Show more